Regional Weather Roundup
Issued by NWS

Home | Current Version | Previous Version | Text Only | Print | Product List | Glossary On
Versions: 1 2 3 4 5 6 7 8 9 10 11 12 13 14 15 16 17 18 19 20 21 22 23 24 25 26 27 28 29 30 31 32 33 34 35 36 37 38 39 40 41 42 43 44 45 46 47 48 49 50
000
ASCA44 KEWX 272320
RWRMX

LATIN AMERICA AND CARIBBEAN REGIONAL WEATHER ROUNDUP
NATIONAL WEATHER SERVICE AUSTIN/SAN ANTONIO TX
500 PM CST FRI FEB 27 2015

NOTE: "FAIR" INDICATED FEW OR NO CLOUDS BELOW 12,000 FEET WITH NO
SIGNIFICANT WEATHER AND/OR OBSTRUCTIONS TO VISIBILITY.

BAJA CALIFORNIA

CITY           SKY/WX    TMP DP  RH WIND       PRES   REMARKS
LORETO         SUNNY     73  61  64 SE12      29.78R
LA PAZ         SUNNY     82  41  23 W8        29.84
MEXICALI       MOSUNNY   77  37  24 S9        29.62
S.J. DEL CABO  SUNNY     79  43  27 E18       29.83F
TIJUANA        CLOUDY    63  50  63 S14       29.83F

NORTHWESTERN MEXICO

CITY           SKY/WX    TMP DP  RH WIND       PRES   REMARKS
CULIACAN       SUNNY     82  61  47 SW7       29.84
DURANGO        SUNNY     75  -2   5 W14       29.95F
GUAYMAS        SUNNY     73  55  53 S12       29.75
HERMOSILLO     SUNNY     81  55  41 S15       29.78
CD. JUAREZ     MOSUNNY   46  27  46 E12       29.85  WCI  41
LOS MOCHIS     SUNNY     77  50  38 S10       29.84F
OBREGON        SUNNY     75  57  53 S14       29.79

NORTHEASTERN MEXICO

CITY           SKY/WX    TMP DP  RH WIND       PRES   REMARKS
CHIHUAHUA      SUNNY     72  32  23 E18       29.81
MATAMOROS      PTSUNNY   66  59  77 NE9       30.15
MONCLOVA       CLOUDY    37  36  93 NE7       30.14F FOG     WCI  32
MONTERREY      DRIZZLE   45  43  93 SE6       30.14R FOG     WCI  41
NUEVO LAREDO   CLOUDY    39  36  87 NE7       30.24  FOG     WCI  34
PIEDRAS NEGRAS DRZL/FOG  36  36 100 NE8       30.25S VSB 3/4 WCI  29
REYNOSA        CLOUDY    59  46  63 NW12      30.13
SALTILLO       MOSUNNY   50  43  76 NE9       30.05S WCI  46
TORREON        SUNNY     77  41  27 E7        29.89F
CD. VICTORIA   CLOUDY    61  54  77 NW6       30.08

WESTERN MEXICO

CITY           SKY/WX    TMP DP  RH WIND       PRES   REMARKS
AGUASCALIENTES MOSUNNY   73  -6   4 S21       30.02
COLIMA         PTSUNNY   75  54  46 SW12      29.92R
DEL BAJIO      PTSUNNY   79   9   7 SW10      30.08S
GUADALAJARA    MOSUNNY   81  10   7 NW10      29.98
MANZANILLO     MOSUNNY   77  68  73 W9        29.81
MAZATLAN       MOSUNNY   75  57  53 S10       29.84S
URUAPAN        PTSUNNY   75  54  46 S9        30.04S
ZACATECAS      MOSUNNY   73  18  12 SW20G31   30.04

CENTRAL MEXICO

CITY           SKY/WX    TMP DP  RH WIND       PRES   REMARKS
CUERNAVACA     MOSUNNY   84  36  17 CALM      29.94S
MEXICO CITY    PTSUNNY   73  36  25 S14       30.12R
MORELIA        PTSUNNY   73  43  33 S16       30.05
POZA RICA      CLOUDY    63  63 100 NW7       30.09S VSB 1
PUEBLA         PTSUNNY   72  36  26 S17       30.14R
QUERETARO      PTSUNNY   79  32  18 SW16      30.05R
S. LUIS POTOSI PTSUNNY   57  39  51 N14       30.04S
TAMPICO        CLOUDY    66  57  72 NE12      30.07S
TOLUCA         PTSUNNY   68  25  19 SW7       30.20R

SOUTHERN MEXICO

CITY           SKY/WX    TMP DP  RH WIND       PRES   REMARKS
ACAPULCO       MOSUNNY   82  72  69 SW7       29.83S
B. DE HUATULCO MOSUNNY   82  75  78 W12       29.85
OAXACA         PTSUNNY   81  34  18 S8        30.05S
P. ESCONDIDO   SUNNY     81  70  69 W6        29.97S
VERACRUZ       CLOUDY    70  59  68 N12       30.02F
ZIHUATANEJO    MOSUNNY   88  72  58 SW6       29.84S HX  94

YUCATAN PENINSULA

CITY           SKY/WX    TMP DP  RH WIND       PRES   REMARKS
CAMPECHE       MOSUNNY   81  75  83 NW12G23   29.86R
CANCUN         PTSUNNY   81  73  78 SE8       29.98R
CHETUMAL       MOSUNNY   82  75  78 E12       29.90S
CD. DEL CARMEN CLOUDY    77  72  83 N9        29.94  HAZE
COZUMEL        MOSUNNY   79  72  78 SE9       29.97R
MERIDA         PTSUNNY   79  70  73 NE9       29.94R
MINATITLAN     CLOUDY    73  68  83 N12       29.95
TAPACHULA      SUNNY     84  73  70 W9        29.78S HX  91
TUX. GUTIERREZ CLOUDY    72  59  64 NW13      29.97S
VILLAHERMOSA   CLOUDY    73  70  88 S8        29.98R

CENTRAL AMERICA

CITY           SKY/WX    TMP DP  RH WIND       PRES   REMARKS
BELIZE CITY    MOSUNNY   82  73  74 E10       29.91R
MANAGUA        PTCLDY    88  70  55 SE16      29.77R HX  92

CARIBBEAN

CITY           SKY/WX    TMP DP  RH WIND       PRES   REMARKS
ARUBA          PTCLDY    82  75  78 E18G31    29.86S
CURACAO        LGT RAIN  81  73  78 E15       29.92R
KINGSTON       PTCLDY    82  73  74 SE22      29.94R
NASSAU         MOCLDY    77  70  78 NW7       30.09S
SAN JUAN       PTCLDY    79  72  78 E7        30.05S
SANTO DOMINGO  PTCLDY    79  72  78 SE7       30.00S
ST. KITTS      LGT RAIN  75  72  88 NE18      30.03S
ST. MAARTEN    PTCLDY    79  68  69 E16       30.06R

$$



USA.gov is the U.S. government's official web portal to all federal, state and local government web resources and services.